Regional Weather Roundup
Issued by NWS

Home | Current Version | Previous Version | Text Only | Print | Product List | Glossary Off
Versions: 1 2 3 4 5 6 7 8 9 10 11 12 13 14 15 16 17 18 19 20 21 22 23 24 25 26 27 28 29 30 31 32 33 34 35 36 37 38 39 40 41 42 43 44 45 46 47 48 49 50

000
ASUS43 KOAX 180610
RWRNE

WEATHER ROUNDUP FOR NEBRASKA
NATIONAL WEATHER SERVICE OMAHA NE
100 AM CDT SAT APR 18 2015

NOTES: SATELLITE DATA IS BEING USED TO AUGMENT CLOUD COVER ABOVE
       12000 FEET.
       "FAIR" INDICATES FEW OR NO CLOUDS BELOW 12,000 FEET WITH NO
       SIGNIFICANT WEATHER AND/OR OBSTRUCTIONS TO VISIBILITY.

  * THESE STATIONS DO NOT REPORT WEATHER SUCH AS RAIN...SNOW OR FOG.

NEZ001>004-019>022-054>056-180700-
NEBRASKA PANHANDLE

CITY           SKY/WX    TMP DP  RH WIND       PRES   REMARKS
SCOTTSBLUFF    RAIN      42  42 100 NW10      30.05F FOG
6HR MIN TEMP:  42; 6HR MAX TEMP:  48; 6HR PCP:  0.60;

ALLIANCE       RAIN      48  46  93 E8        30.03R FOG
6HR MIN TEMP:  48; 6HR MAX TEMP:  49; 6HR PCP:  0.22;

CHADRON        CLOUDY    48  46  93 NE8       30.06F
6HR MIN TEMP:  46; 6HR MAX TEMP:  48; 6HR PCP:  0.14;

KIMBALL        RAIN      39  38  97 NW7       30.04F WCI  34
SIDNEY         RAIN      41  39  93 NW16      30.04F FOG
6HR MIN TEMP:  41; 6HR MAX TEMP:  52; 6HR PCP:  0.87;

$$

NEZ057>060-069>072-079>082-180700-
SOUTHWEST NEBRASKA

CITY           SKY/WX    TMP DP  RH WIND       PRES   REMARKS
NORTH PLATTE   CLOUDY    54  52  93 SW6       29.99R
6HR MIN TEMP:  54; 6HR MAX TEMP:  61; 6HR PCP:  0.01;

IMPERIAL       CLOUDY    50  45  83 S7        29.98S
6HR MIN TEMP:  49; 6HR MAX TEMP:  61;

LEXINGTON      CLOUDY    57  55  91 E10       29.96S
MCCOOK         CLOUDY    53  47  79 NW6       29.98R
6HR MIN TEMP:  53; 6HR MAX TEMP:  69; 6HR PCP: TRACE;

OGALLALA       CLOUDY    49  48  96 N3        30.00F
$$

NEZ005>010-023>029-035>040-094-180700-
NORTH CENTRAL NEBRASKA

CITY           SKY/WX    TMP DP  RH WIND       PRES   REMARKS
VALENTINE      CLOUDY    52  49  89 NE7       30.04F
6HR MIN TEMP:  52; 6HR MAX TEMP:  55; 6HR PCP:  0.22;

AINSWORTH      CLOUDY    52  51  95 NE7       30.04F
BROKEN BOW     CLOUDY    55  51  86 NE10      29.99F
6HR MIN TEMP:  54; 6HR MAX TEMP:  61;

O`NEILL        CLOUDY    55  49  79 W6        30.03S
ORD            CLOUDY    56  52  86 N6        29.99F
6HR MIN TEMP:  55; 6HR MAX TEMP:  62; 6HR PCP:  0.46;

THEDFORD       CLOUDY    52  51  95 E9        30.02F
$$

NEZ041-046>049-061>064-073>077-083>087-180700-
SOUTH CENTRAL NEBRASKA

CITY           SKY/WX    TMP DP  RH WIND       PRES   REMARKS
GRAND ISLAND   FAIR      54  51  90 E5        29.98F
6HR MIN TEMP:  54; 6HR MAX TEMP:  65;

AURORA         FAIR      54  53  97 E5        29.98S
HASTINGS       FAIR      55  52  89 E7        29.97S
6HR MIN TEMP:  54; 6HR MAX TEMP:  67;

HEBRON         FAIR      56  53  89 CALM      29.97R
HOLDREGE       MOCLDY    56  54  90 E9        29.96S
KEARNEY *      CLOUDY    55  52  88 E7        29.97S
YORK           FAIR      57  54  88 E5        29.98S
$$

NEZ011>018-030>034-042>045-180700-
NORTHEAST NEBRASKA

CITY           SKY/WX    TMP DP  RH WIND       PRES   REMARKS
ALBION         CLOUDY    58  50  73 E10       29.99F
BLAIR          CLOUDY    64  52  63 NE3       29.98F
COLUMBUS *     CLOUDY    61  50  67 NE7       30.00F
FREMONT        LGT RAIN  64  56  74 SE5       29.99S
TEKAMAH        CLOUDY    62  51  67 N6        29.98F
6HR MIN TEMP:  61; 6HR MAX TEMP:  76;

WAYNE          CLOUDY    59  54  81 E8        30.02S
$$

NEZ050>053-065>068-078-088>093-180700-
SOUTHEAST NEBRASKA

CITY           SKY/WX    TMP DP  RH WIND       PRES   REMARKS
LINCOLN        MOCLDY    64  56  75 E6        29.97F
6HR MIN TEMP:  60; 6HR MAX TEMP:  72; 6HR PCP:  0.01;

OMAHA EPPLEY   CLOUDY    64  55  72 NW5       29.97F
6HR MIN TEMP:  62; 6HR MAX TEMP:  75; 6HR PCP: TRACE;

BEATRICE       FAIR      60  55  83 E3        29.97S
FALLS CITY     FAIR      60  55  83 E5        29.96F
6HR MIN TEMP:  60; 6HR MAX TEMP:  72;

NEBRASKA CITY  FAIR      62  54  73 E5        29.98F
PLATTSMOUTH    MOCLDY    64  52  64 E7        29.98F
$$

NEZ044-045-051>053-067-180700-
OMAHA AREA

CITY           SKY/WX    TMP DP  RH WIND       PRES   REMARKS
OMAHA EPPLEY   CLOUDY    64  55  72 NW5       29.97F
6HR MIN TEMP:  62; 6HR MAX TEMP:  75; 6HR PCP: TRACE;

BLAIR          CLOUDY    64  52  63 NE3       29.98F
FREMONT        LGT RAIN  64  56  74 SE5       29.99S
MILLARD        CLOUDY    66  57  71 CALM      29.98S
OFFUTT AFB     CLOUDY    64  55  72 E3        29.97S
PLATTSMOUTH    MOCLDY    64  52  64 E7        29.98F
WAHOO          CLOUDY    64  54  70 E7        29.98F
$$


USA.gov is the U.S. government's official web portal to all federal, state and local government web resources and services.